GFSWCAN_sfc_temp_078.txt.gz
Temp
52 52 52 53 53 54 54 54 54 54 54 53 54 54 54 53 53 50 45 45 47 40 38 39 39 40 45 46 46 45 46 48 47 42 41 39 40 39 38 38 38 38 38 38 37 34 32 45 44 41 45 43 46 45
51 51 52 52 53 53 54 54 54 54 53 53 54 54 54 53 53 50 46 47 47 44 40 43 42 43 40 41 45 44 45 44 47 45 43 42 40 39 38 38 40 37 42 42 41 43 44 45 45 45 45 46 44 45
51 51 52 52 53 53 53 53 53 53 53 53 54 54 54 53 52 51 47 45 47 43 42 43 41 45 45 43 44 46 45 45 44 45 46 44 40 43 40 40 39 41 41 41 40 43 43 44 44 44 45 45 45 45
50 51 52 52 52 52 52 53 52 52 53 54 54 54 54 53 52 51 47 45 48 46 42 39 46 43 47 45 44 45 45 45 45 47 46 44 43 40 41 40 40 43 41 41 41 44 42 44 44 45 43 43 42 42
50 50 51 51 52 52 52 52 52 52 52 53 54 54 53 53 50 48 46 45 46 47 40 40 42 45 46 46 45 46 46 45 46 45 44 42 41 40 38 38 39 42 44 42 45 45 45 43 43 44 42 41 42 41
50 50 51 51 51 51 52 51 52 52 52 51 52 53 52 51 50 50 47 47 46 47 42 37 42 41 43 44 43 42 42 42 44 44 40 39 37 39 38 39 46 44 43 44 45 42 41 40 40 41 41 41 41 41
49 50 50 51 51 51 52 52 52 52 52 52 52 52 51 50 48 46 44 46 47 47 42 35 36 41 40 42 41 43 42 41 43 39 39 39 38 38 38 37 44 42 42 41 41 41 39 39 40 41 41 41 40 40
49 50 50 50 51 51 52 52 52 52 52 52 52 52 51 50 47 45 46 47 46 43 41 31 32 37 41 39 40 40 42 42 38 38 37 38 37 36 34 42 40 39 39 39 39 40 39 39 39 39 39 39 38 38
49 49 50 50 50 51 52 52 52 51 51 51 51 50 48 45 44 43 47 45 43 44 36 34 33 33 39 36 38 40 40 38 37 37 37 36 36 32 41 41 39 38 40 40 38 38 38 38 38 38 38 38 37 37
48 49 49 50 50 51 51 51 51 51 51 50 48 44 39 41 45 46 43 41 39 37 37 35 33 32 37 36 35 37 35 35 32 35 36 33 35 40 40 41 41 40 40 39 35 33 35 34 37 38 37 37 36 36
49 49 49 50 49 50 51 51 51 51 50 45 40 38 40 43 43 39 35 35 36 34 34 32 33 32 37 34 35 36 32 31 29 31 32 32 32 37 37 38 39 41 41 40 41 40 40 39 38 37 37 36 36 36
49 49 49 49 49 50 51 51 51 47 44 44 41 41 41 37 34 32 29 30 30 33 30 31 32 35 34 37 35 33 31 29 27 32 29 28 36 37 36 36 37 39 39 38 39 39 38 38 37 36 35 35 35 35
49 49 49 49 50 50 51 50 50 48 46 43 38 34 33 32 26 25 24 26 25 30 30 30 30 33 32 35 32 31 27 28 32 26 27 33 36 36 36 36 34 35 36 37 38 38 38 36 35 34 34 34 33 33
48 49 49 49 50 50 50 50 49 47 43 36 31 25 28 25 26 29 31 32 32 32 31 33 30 32 33 32 31 27 30 31 21 20 28 35 35 37 36 36 35 35 35 32 34 34 33 31 31 31 31 32 32 32
48 49 49 49 49 50 50 49 47 42 38 33 31 25 26 31 27 26 26 29 30 34 32 31 30 33 30 27 31 27 22 20 24 29 34 34 34 35 34 34 36 36 36 35 34 31 29 28 28 30 32 31 31 31
48 48 47 49 49 50 49 46 41 41 34 30 25 25 27 25 26 26 26 27 30 33 32 33 28 26 27 28 23 22 24 25 32 29 33 34 33 33 34 34 35 35 35 35 35 33 33 32 31 29 29 29 29 28
48 43 48 49 49 49 47 39 37 34 33 30 27 29 30 27 27 29 29 31 33 34 31 29 24 27 25 23 23 27 26 33 32 30 31 32 33 32 33 33 33 33 34 33 32 32 30 29 25 25 26 29 27 27
43 47 48 49 49 44 38 36 34 32 29 27 27 29 30 31 29 29 30 31 33 31 29 28 27 23 25 25 27 30 30 27 28 31 31 31 32 32 32 33 32 32 32 27 26 24 24 25 26 28 26 27 26 27
45 47 48 49 47 38 34 33 33 28 29 25 27 28 30 30 31 31 31 32 31 31 28 26 24 25 28 29 32 28 28 30 31 30 30 31 32 31 30 28 27 27 27 27 28 30 28 27 28 27 26 26 25 27
48 48 49 49 47 35 32 32 33 29 23 27 26 25 28 28 28 28 29 30 29 28 25 24 29 34 34 35 32 32 32 32 32 30 28 29 29 26 27 28 30 28 28 25 26 29 28 28 27 26 25 26 24 23
46 45 48 46 36 35 35 28 25 25 24 26 25 26 25 24 25 25 26 27 25 23 26 31 33 34 31 31 32 34 32 34 34 35 33 28 28 28 25 26 26 28 29 29 28 27 26 25 24 24 24 24 23 23
43 47 37 36 31 30 31 30 27 26 24 23 24 26 24 23 24 23 24 24 24 32 30 32 30 30 29 30 30 32 32 31 30 33 34 31 26 25 25 27 26 26 25 24 24 24 23 23 24 24 22 22 22 22
44 39 32 32 28 27 26 29 26 23 20 21 21 20 21 23 23 20 25 26 29 29 28 28 26 24 26 23 26 26 27 30 30 30 31 30 29 27 26 26 25 23 23 22 22 22 20 22 21 21 20 20 19 19
40 33 31 28 27 23 26 23 27 25 21 20 20 19 17 21 19 21 23 25 28 25 25 24 27 25 25 26 27 28 27 28 27 26 28 28 26 25 26 26 24 23 23 22 21 20 19 18 19 18 17 16 16 17
30 27 28 23 26 23 21 21 22 22 18 20 19 15 16 18 22 21 21 27 24 25 26 25 29 32 31 29 26 27 22 29 29 27 24 26 24 21 21 21 21 21 19 19 18 18 17 17 17 16 16 15 16 17
27 27 25 23 22 23 21 20 19 18 17 15 18 17 18 21 21 23 24 30 26 28 26 28 30 27 27 29 30 26 27 24 28 29 25 24 26 25 22 21 20 20 18 19 17 16 15 16 16 14 15 14 16 13
22 21 25 29 27 24 23 23 24 21 17 14 16 15 20 22 23 27 26 26 27 29 33 34 35 36 36 27 25 25 24 25 26 27 24 21 20 22 23 21 19 21 18 16 16 16 16 16 16 15 14 14 13 11
26 24 21 21 18 19 19 20 20 21 23 23 24 21 24 27 30 28 25 21 21 27 32 30 31 31 31 28 22 20 17 16 16 16 16 15 13 12 13 16 18 22 16 16 16 17 17 17 16 15 14 12 11 12
22 22 25 13 10 17 20 22 25 25 27 27 29 24 26 26 23 21 20 20 22 26 26 24 19 21 19 18 18 19 20 22 23 21 22 20 17 17 10 12 12 12 13 15 20 20 17 17 16 15 12 11 11 9
19 17 14 13 15 18 18 16 15 15 21 23 25 22 21 21 19 18 18 19 22 26 29 29 22 25 22 22 17 16 16 20 21 26 23 20 21 16 11 11 11 10 10 13 13 12 18 12 12 9 9 9 10 11
18 16 12 12 11 10 11 17 18 24 19 18 21 23 23 20 19 18 19 21 21 23 23 23 25 26 26 23 23 21 19 17 12 12 13 16 14 13 12 12 12 10 10 11 11 11 10 9 8 7 8 6 5 8
18 15 12 7 9 17 16 18 16 13 14 19 19 18 18 22 23 20 18 19 21 23 27 27 26 26 28 29 28 27 33 20 14 15 15 14 14 14 12 10 8 10 10 10 9 8 6 6 7 7 8 5 4 4
12 8 8 12 14 13 16 18 17 12 13 17 16 17 20 24 26 22 16 19 24 27 27 27 25 21 22 25 24 24 24 19 17 22 23 22 20 15 11 10 10 10 9 10 8 7 5 3 5 4 3 2 2 3

GFSWCAN_sfc_temp_081.txt.gz
Temp
53 52 52 53 53 54 54 54 54 54 54 54 54 54 54 54 53 55 49 52 53 48 43 44 44 47 50 52 50 50 49 51 52 46 45 44 44 44 42 43 42 41 41 42 41 37 34 50 46 42 47 48 50 50
52 52 52 52 53 53 53 54 54 53 53 54 54 54 54 54 53 53 51 53 55 50 44 48 47 47 44 45 48 51 49 50 52 50 49 48 44 45 43 42 45 41 45 43 44 45 49 52 51 50 51 50 49 50
52 51 51 52 52 53 53 53 53 53 53 54 54 54 54 54 53 55 52 51 55 49 46 48 45 49 50 49 49 47 52 51 51 50 52 49 43 48 43 44 44 46 47 44 44 50 49 50 51 50 49 49 49 49
51 51 51 52 52 52 52 53 52 53 53 54 55 55 54 54 53 54 52 51 54 54 48 43 51 47 51 51 48 49 48 51 52 52 51 49 46 47 47 44 44 48 46 46 46 51 49 49 50 51 49 47 46 46
51 51 51 51 52 52 52 52 52 52 53 54 54 54 53 52 52 54 53 51 52 50 45 44 47 48 51 51 50 50 51 50 52 49 48 46 47 45 46 43 43 48 48 44 47 50 49 47 48 49 47 45 46 45
50 50 50 51 51 51 52 52 52 52 52 52 53 53 52 52 52 56 51 52 52 51 48 42 47 46 48 49 49 48 47 49 50 48 47 46 42 42 41 43 52 52 51 50 50 47 47 45 45 46 46 45 45 44
50 50 50 51 51 51 51 52 52 52 52 52 52 52 52 51 54 49 46 48 49 51 48 39 40 45 45 46 48 49 49 47 48 46 44 45 42 41 41 40 49 49 50 47 47 46 43 43 44 44 45 44 43 43
50 50 50 50 50 51 51 52 52 52 52 52 52 52 51 50 50 49 49 49 49 49 47 35 36 41 44 45 45 46 47 47 44 44 43 42 41 40 36 47 46 45 46 45 45 45 45 45 44 43 43 42 41 41
50 50 50 50 50 51 51 52 52 52 52 52 51 51 51 50 48 47 47 48 49 47 40 38 35 35 44 42 44 45 46 41 43 41 41 40 40 34 44 47 46 44 43 44 42 43 43 42 42 41 41 41 40 41
49 49 49 50 50 50 51 51 51 51 51 51 52 50 44 45 46 47 47 45 44 43 41 38 40 36 42 42 41 42 42 40 33 40 40 35 38 46 47 46 47 46 45 43 37 35 37 37 39 41 40 40 39 39
49 49 49 49 50 50 51 51 51 51 51 50 46 43 46 46 48 44 38 37 40 36 40 38 38 35 40 38 40 42 36 36 31 35 35 36 36 43 45 44 46 46 46 45 45 44 44 43 41 40 40 39 39 39
49 49 49 49 49 50 51 51 51 49 48 47 46 47 47 44 39 34 34 34 32 35 34 35 36 39 37 40 39 36 34 33 30 37 32 31 41 42 41 41 42 45 45 43 44 42 42 41 40 39 38 38 37 37
49 49 49 49 50 50 51 50 51 49 48 48 44 37 40 35 30 29 29 32 31 35 34 34 33 37 36 39 36 34 29 30 36 29 30 37 39 41 41 40 38 40 40 41 41 41 41 39 38 37 36 36 36 36
49 49 49 49 50 50 50 50 49 48 47 40 34 31 32 30 32 35 36 35 36 37 35 38 34 36 37 34 36 29 34 33 26 23 29 38 38 40 41 40 38 36 36 35 36 37 35 33 33 33 34 35 35 34
49 49 49 49 49 50 50 49 49 46 43 35 34 30 31 37 34 33 31 33 35 39 37 35 35 38 33 31 35 30 25 23 28 32 38 38 38 39 38 38 39 38 38 38 37 32 29 29 30 32 34 33 33 33
49 48 48 49 49 50 49 47 43 43 38 33 31 30 33 31 32 31 31 33 35 38 37 37 32 30 31 32 27 25 27 27 34 34 38 38 38 38 38 38 38 39 39 39 39 37 36 34 33 32 32 32 31 30
48 44 49 49 49 49 47 40 38 34 34 31 31 36 36 33 35 36 38 38 40 37 34 34 28 31 30 28 27 33 29 36 37 35 36 37 36 36 37 36 35 35 36 37 36 35 34 32 29 27 28 31 29 29
44 47 48 49 49 45 39 37 35 33 32 32 31 34 35 39 36 36 36 36 36 35 33 32 32 27 28 28 31 35 34 32 33 35 36 35 37 37 36 35 34 34 34 30 29 27 27 26 28 31 28 29 28 29
46 47 48 49 46 39 37 34 34 31 32 32 33 33 35 36 37 37 38 37 37 36 34 30 29 29 33 35 35 35 34 33 34 34 35 35 36 35 33 32 30 30 29 28 29 33 32 30 30 29 29 28 27 29
47 48 48 48 48 36 33 33 35 32 29 32 31 31 33 33 34 34 34 34 33 32 30 27 31 37 38 41 37 37 36 36 34 33 32 33 34 31 30 30 32 30 30 28 29 31 31 30 29 29 28 27 26 25
44 45 47 46 37 38 36 33 31 33 32 31 31 31 30 28 28 28 29 33 31 30 29 35 38 42 36 36 36 37 36 37 38 39 37 32 32 31 30 30 29 32 31 31 31 30 28 28 27 27 26 26 26 25
41 47 39 38 33 32 33 35 33 32 30 29 28 31 28 26 27 28 31 27 29 34 36 38 36 35 35 33 34 34 37 36 35 37 37 35 29 28 28 29 28 29 29 29 29 28 27 26 26 26 25 24 24 24
44 39 33 32 31 29 30 33 29 27 24 24 26 27 26 27 29 29 26 30 33 37 38 35 31 29 32 29 28 30 31 34 33 33 34 34 33 31 30 29 30 28 26 25 26 26 24 24 24 24 23 22 22 21
41 33 31 30 31 28 28 25 29 27 26 24 24 24 25 27 22 23 24 34 34 33 31 29 29 27 27 27 30 32 31 34 32 30 32 32 29 29 31 29 28 28 28 26 24 23 22 22 21 21 20 19 19 19
30 29 30 27 29 24 22 22 24 25 23 24 23 24 22 22 21 22 25 33 35 31 32 30 30 32 34 34 33 32 28 33 32 31 30 33 29 26 25 26 26 26 24 22 21 21 20 20 19 19 19 18 17 18
28 30 28 27 24 24 23 20 21 23 24 21 23 25 22 22 20 23 31 37 36 35 32 30 31 31 33 36 34 31 30 29 33 33 29 30 30 29 25 23 22 22 22 24 22 20 19 19 18 16 18 17 18 15
28 26 28 33 30 28 26 28 29 26 21 20 21 18 20 19 23 31 37 35 38 36 38 37 36 36 37 35 34 32 30 30 30 31 30 28 27 27 29 27 24 25 22 21 21 21 20 19 19 18 17 18 17 15
29 27 21 24 25 28 23 24 22 23 27 28 24 17 19 25 30 36 35 30 28 29 34 36 37 37 38 35 30 26 22 20 20 21 21 20 18 19 20 22 22 25 21 20 20 19 20 19 19 18 16 16 15 15
25 28 29 21 22 23 24 25 26 31 33 29 29 31 30 34 32 29 26 24 26 29 28 27 25 27 26 26 27 27 23 25 25 23 25 24 20 20 18 20 22 19 18 21 24 21 17 18 18 17 15 15 14 13
22 30 25 23 19 21 26 28 29 26 27 30 30 29 29 27 25 22 22 22 25 27 29 30 25 27 24 24 21 22 26 29 33 32 29 27 26 22 17 16 16 16 16 17 17 16 24 17 16 12 12 12 13 13
24 23 19 22 22 22 20 21 22 26 24 24 24 26 30 26 23 22 22 23 27 27 27 23 25 28 27 26 25 23 21 21 22 24 25 24 20 19 17 17 17 15 15 16 15 16 15 13 13 11 10 7 6 10
23 20 18 15 16 18 20 21 22 23 22 22 24 22 21 22 22 23 21 23 24 25 28 28 28 26 31 31 31 31 36 23 20 21 22 20 20 18 17 16 14 15 15 14 14 12 10 10 11 9 10 6 5 4
17 17 17 17 17 17 19 21 20 19 19 19 20 19 22 23 25 24 20 25 26 27 28 30 31 30 30 29 29 28 27 24 23 26 27 25 23 20 16 14 15 15 13 13 12 11 8 5 6 5 4 2 2 2

GFSWCAN_sfc_temp_084.txt.gz
Temp
55 54 53 52 53 53 54 54 54 54 54 55 55 54 54 54 53 51 46 49 46 40 38 44 45 42 44 44 41 44 43 44 43 37 36 34 33 35 32 34 33 33 30 30 31 26 24 43 40 35 39 40 43 42
54 53 53 52 52 53 53 53 54 53 53 54 54 54 54 54 54 54 46 51 51 43 39 46 45 45 43 42 38 45 43 44 42 38 38 37 34 35 35 31 36 31 37 33 35 34 42 43 41 42 43 43 40 40
54 53 52 52 52 53 53 53 53 53 53 54 54 55 54 54 55 53 47 47 48 43 40 41 42 45 48 46 46 39 43 44 45 42 40 39 35 37 31 34 33 38 40 35 37 39 40 43 43 43 41 40 42 43
53 52 52 51 52 52 52 52 53 53 53 54 55 55 54 53 54 54 46 46 45 47 39 37 49 43 48 48 45 45 43 46 44 43 40 38 35 39 35 36 35 38 39 38 37 42 39 41 41 43 43 42 41 42
52 51 52 51 52 52 52 52 52 52 53 53 54 54 53 52 53 51 47 47 47 43 37 37 43 45 48 47 46 46 45 44 41 38 36 35 36 36 36 34 32 39 38 34 35 41 40 38 39 41 41 40 40 39
52 51 51 51 51 51 51 52 52 52 52 52 53 52 52 52 53 50 43 46 47 45 39 33 41 42 43 44 44 42 42 42 40 38 36 35 37 34 30 30 43 43 44 42 40 40 39 40 39 39 39 40 40 39
51 51 51 51 51 51 51 51 52 52 52 52 52 52 52 52 48 44 41 43 47 44 40 34 33 39 41 41 42 41 42 39 38 36 35 35 34 34 32 29 42 43 43 40 40 40 36 38 37 39 39 39 41 38
51 50 51 50 51 51 51 51 52 52 52 52 52 52 51 51 48 43 44 47 46 42 40 32 33 33 39 37 36 39 37 38 36 35 34 32 32 31 28 37 39 41 41 39 40 38 38 39 39 37 38 37 36 35
51 50 51 50 50 50 51 51 52 51 52 52 52 51 48 46 43 42 48 47 43 40 32 32 30 28 38 35 37 36 37 31 35 31 32 33 30 27 34 38 39 39 38 38 37 38 37 36 36 35 35 34 32 33
50 50 50 50 50 50 51 51 51 51 51 51 48 44 38 42 47 47 42 39 36 36 35 30 33 28 33 34 34 33 34 31 24 31 32 28 29 39 40 41 42 40 40 38 32 29 31 30 33 34 34 35 34 33
50 50 50 50 49 50 51 51 51 51 51 45 41 38 42 47 41 39 32 31 33 30 34 31 30 28 34 30 31 35 29 28 21 26 26 26 27 34 40 39 40 40 39 38 38 37 36 35 34 34 34 34 33 31
49 49 49 49 49 50 51 51 51 49 45 44 43 44 42 38 33 28 26 29 28 28 30 29 30 32 32 34 32 32 27 26 20 30 25 23 30 34 36 36 37 38 38 37 38 36 37 36 34 33 33 31 30 30
49 49 49 49 50 50 51 51 51 49 47 44 38 33 33 31 23 23 20 24 24 29 29 28 26 30 30 32 30 29 22 23 29 19 23 29 32 34 34 34 35 35 35 36 36 36 35 33 32 30 30 30 28 29
49 49 49 49 49 50 50 51 49 48 44 35 30 23 27 22 26 29 28 30 29 30 29 30 28 29 31 27 30 21 29 28 16 14 23 28 31 33 35 35 34 32 32 30 30 32 30 29 27 27 28 28 28 27
49 49 49 49 49 50 50 50 49 45 39 31 29 23 26 31 27 26 26 27 28 32 31 28 27 30 26 25 28 24 18 12 20 22 27 28 30 33 33 33 34 33 32 31 30 27 23 24 24 24 26 27 26 26
48 48 46 49 49 49 49 48 43 42 35 31 28 24 29 25 24 24 24 26 30 32 29 29 25 22 23 24 20 18 18 19 28 29 28 27 30 31 32 33 34 34 33 33 32 31 29 27 26 24 26 25 24 24
47 42 48 49 49 49 47 40 38 34 33 32 28 31 29 26 28 27 30 31 33 29 26 26 20 23 23 18 19 25 23 28 30 29 27 31 31 30 32 33 33 34 34 33 31 29 26 26 20 18 18 23 23 23
42 46 48 48 48 45 39 37 35 33 31 32 29 28 31 31 29 29 30 33 31 28 27 24 24 18 20 17 22 28 29 27 26 27 28 31 31 31 31 31 31 32 31 28 27 22 18 18 20 21 20 21 20 19
44 47 48 48 46 40 35 34 34 31 32 33 31 28 30 31 31 32 31 32 31 30 27 23 21 19 24 27 29 31 28 28 30 30 30 31 32 31 29 28 28 28 27 24 25 26 24 26 25 23 21 20 19 22
47 48 47 47 47 36 33 33 34 32 29 30 28 28 28 27 28 28 28 29 27 25 21 21 26 29 30 33 31 29 30 33 31 29 29 28 29 26 27 27 29 28 26 24 25 28 23 24 24 23 20 20 18 18
45 44 46 46 38 36 35 32 31 32 31 27 28 29 26 25 23 23 23 27 22 23 23 30 32 37 35 34 34 32 31 31 33 35 32 27 28 27 25 26 27 28 27 27 26 25 27 23 22 21 22 21 19 18
38 45 42 39 33 33 33 34 29 30 25 26 28 26 22 21 24 26 30 27 25 27 29 34 38 38 37 32 35 31 33 32 32 33 37 34 27 25 26 27 27 26 26 25 25 24 23 23 23 22 20 20 20 18
43 37 32 32 30 30 30 33 24 25 22 23 25 20 21 24 27 30 23 24 27 32 38 38 39 29 33 27 23 25 28 32 31 30 32 31 30 28 28 27 27 27 24 22 23 22 20 25 23 21 19 19 17 16
40 32 31 30 32 28 28 24 30 27 26 22 22 17 21 25 22 21 21 22 29 28 34 36 33 24 21 21 24 29 28 32 32 27 29 30 27 28 29 28 27 26 25 24 22 19 18 20 22 19 18 12 12 12
30 29 30 27 29 23 20 21 21 22 18 21 19 19 19 20 19 19 16 21 31 33 36 36 33 33 33 34 35 31 28 32 32 31 27 31 28 25 23 23 24 24 24 22 19 17 15 16 15 13 11 10 10 8
27 29 28 28 22 19 20 16 20 21 18 16 19 17 19 20 17 17 20 28 37 38 37 34 31 30 30 34 36 27 29 33 34 32 27 30 30 29 25 22 20 20 22 22 20 16 16 16 14 11 10 11 18 8
27 27 29 31 27 25 22 23 25 20 16 17 19 19 20 18 15 21 28 33 34 35 38 38 35 34 35 35 36 30 33 32 30 30 29 28 26 29 30 27 24 25 23 22 20 18 17 16 14 12 10 9 8 7
30 26 20 24 20 21 18 18 17 18 19 23 24 19 20 19 22 27 30 23 20 19 22 23 29 33 29 26 29 28 22 21 21 22 23 20 19 20 22 23 24 27 22 20 18 16 17 16 14 12 9 7 6 6
23 27 26 20 15 16 18 19 21 26 30 27 24 24 20 24 24 23 20 16 15 20 19 19 19 25 26 27 28 27 23 25 25 22 25 24 18 18 19 23 22 20 20 21 25 19 15 13 12 12 7 7 5 3
23 29 21 17 17 17 20 26 27 27 27 29 26 23 24 23 17 14 14 14 16 17 20 23 24 25 25 25 23 21 25 30 35 33 30 27 27 20 20 19 18 18 19 18 17 17 26 16 16 4 3 2 3 3
26 20 18 19 18 18 19 20 21 25 17 14 15 17 22 16 19 14 13 14 16 18 21 19 23 24 26 26 24 22 22 24 21 27 28 26 23 22 20 19 18 17 17 16 14 12 14 7 3 1 1 -1 -2 3
22 21 20 18 17 16 17 18 14 13 11 11 12 11 12 14 16 19 14 18 19 20 26 25 25 26 29 29 28 30 35 24 21 24 24 22 21 21 19 18 17 17 15 14 12 10 7 6 5 1 0 -2 -4 -4
16 12 10 11 12 10 15 14 13 9 9 8 11 12 13 17 20 19 12 15 19 24 25 27 27 28 29 28 29 28 27 25 25 27 28 27 24 21 18 17 17 16 14 13 11 7 5 2 -1 -3 -4 -4 -6 -6

GFSWCAN_sfc_temp_087.txt.gz
Temp
55 55 53 53 53 53 53 54 54 54 54 55 54 54 54 54 54 46 42 43 41 32 33 39 40 35 39 38 36 40 40 41 38 33 32 30 29 32 29 33 30 31 26 27 28 24 23 41 38 34 38 38 41 40
55 55 53 52 52 53 53 53 53 53 53 54 54 54 54 55 55 51 41 45 45 38 36 42 41 41 39 38 36 39 40 39 38 34 33 32 31 31 31 27 33 29 34 32 33 33 40 40 40 39 41 40 38 39
54 54 53 52 52 52 52 53 53 53 53 53 54 54 54 55 55 50 40 40 42 36 36 37 38 42 44 43 43 37 38 40 40 39 36 35 32 32 28 29 30 33 37 34 35 36 38 41 39 41 40 39 40 40
53 54 53 52 52 52 52 52 52 53 53 54 55 54 54 53 54 50 40 40 40 40 35 36 45 39 44 44 42 41 40 41 41 38 35 33 32 36 31 34 32 36 36 34 34 38 36 38 39 41 40 40 39 39
53 53 53 52 52 52 51 52 52 52 53 53 53 53 53 53 53 46 41 41 42 40 34 34 40 42 44 43 43 42 41 39 37 35 32 33 32 33 31 31 28 35 35 33 33 39 38 37 39 40 39 38 39 37
53 53 52 52 51 51 51 51 51 52 52 52 52 52 52 53 53 45 40 42 42 40 34 30 38 37 40 41 41 40 40 38 36 35 33 32 35 32 27 26 37 38 39 41 40 37 37 37 38 37 38 37 38 37
52 52 52 51 51 51 51 51 51 51 52 52 52 52 52 52 43 42 40 43 46 40 36 32 31 36 39 38 38 38 39 36 36 33 32 32 32 32 28 26 38 40 39 38 38 39 35 36 35 36 37 37 39 36
52 52 51 51 51 51 51 51 51 51 52 52 52 52 51 51 48 42 40 46 44 39 36 30 28 31 37 33 33 36 34 34 34 33 31 31 31 29 26 33 37 37 37 37 38 37 38 37 36 35 35 35 33 33
52 52 51 51 51 51 51 51 51 51 51 52 52 51 45 41 38 39 48 46 39 38 28 28 20 21 35 32 33 34 33 28 32 30 30 31 28 25 34 35 36 37 38 37 36 36 35 35 34 34 34 33 32 32
51 51 51 50 50 50 50 51 52 52 51 51 45 40 34 38 47 45 40 36 32 32 30 26 27 26 30 30 31 30 31 28 21 30 30 28 28 35 39 38 39 38 38 36 31 29 31 30 32 32 32 33 33 32
51 51 50 50 50 50 50 51 51 51 50 43 37 34 38 46 39 35 28 28 29 27 30 28 27 25 32 27 29 32 26 23 17 25 26 25 28 31 37 38 39 38 37 36 35 35 35 34 32 32 32 32 33 32
51 50 50 50 49 50 50 51 51 47 41 42 40 40 38 34 29 26 20 26 26 26 28 26 28 30 30 31 29 30 24 23 17 26 22 21 30 33 33 32 33 35 35 35 36 35 35 34 34 32 32 31 31 30
51 50 50 50 50 50 51 51 51 49 47 42 35 29 28 26 20 19 18 18 18 25 25 25 24 29 29 31 28 26 21 22 27 16 20 24 30 32 32 33 32 32 33 34 34 34 33 32 32 32 30 30 29 29
50 50 49 49 50 50 51 51 49 48 42 32 26 21 23 17 21 23 22 23 27 26 27 28 25 26 29 26 27 19 27 26 13 9 19 24 30 32 31 32 32 31 31 28 30 32 31 29 28 28 30 29 28 28
50 49 49 48 49 50 50 50 50 44 38 28 26 20 21 27 21 19 18 22 24 29 29 27 25 28 23 23 26 23 17 11 17 19 23 24 30 31 31 31 31 30 30 30 29 28 29 28 26 26 27 28 27 27
50 49 46 48 49 49 50 49 44 42 34 27 26 21 26 22 19 19 16 20 24 29 26 27 21 18 21 22 17 16 14 15 21 22 27 25 29 30 31 31 32 32 31 31 30 31 30 29 28 26 26 26 25 25
49 43 47 48 49 49 48 40 38 34 34 31 28 29 25 21 24 25 26 27 29 28 22 22 17 22 22 14 16 21 19 23 26 26 23 28 30 29 30 32 32 32 32 31 30 30 29 28 23 21 22 24 24 24
44 44 47 48 48 45 40 37 35 33 31 32 30 29 29 29 27 28 28 29 29 26 26 22 23 18 17 15 18 24 25 24 24 26 25 29 29 30 31 31 32 31 30 27 26 25 24 22 22 24 22 21 21 21
45 45 48 48 46 39 35 34 34 31 32 32 30 29 31 31 31 30 29 31 28 28 25 20 17 19 23 23 24 22 22 26 31 30 27 29 30 29 29 28 27 26 26 24 25 27 27 27 26 24 23 22 22 23
47 47 47 47 46 35 32 33 34 32 29 30 26 29 29 29 30 30 27 30 28 22 18 19 24 31 28 29 28 28 27 29 28 28 29 28 29 26 27 27 28 26 24 23 24 29 25 25 25 24 22 23 21 20
45 45 46 45 36 35 34 32 31 32 31 29 24 29 27 26 26 27 27 28 21 21 21 29 31 36 33 32 32 31 30 30 29 32 34 25 27 26 25 25 25 26 25 26 27 27 28 25 24 24 24 23 21 20
38 46 41 37 32 32 32 33 28 31 28 25 27 21 20 22 23 25 29 26 24 31 30 36 39 38 37 34 35 30 35 30 30 30 36 33 25 23 25 26 26 26 26 27 28 27 26 25 24 23 22 22 22 20
42 37 32 32 31 31 30 33 26 23 22 24 25 21 18 19 24 29 24 26 27 29 38 38 39 39 35 34 24 25 27 29 31 30 31 31 29 27 27 27 29 26 24 24 26 25 24 26 26 22 21 20 19 18
39 32 31 30 31 28 29 27 28 25 24 24 22 17 17 20 25 23 21 20 25 29 33 36 38 36 21 20 27 34 33 28 30 24 28 27 24 25 28 29 28 25 28 26 25 23 22 22 24 21 19 16 15 14
30 28 30 28 29 22 20 21 21 21 18 19 17 14 19 19 14 12 15 18 23 33 34 35 34 33 33 34 34 34 28 30 30 29 27 30 26 22 19 20 23 23 26 23 21 21 20 20 18 17 16 15 13 10
26 28 28 28 23 21 19 16 19 20 19 16 19 16 13 15 10 16 16 22 33 37 35 33 34 33 29 32 34 34 33 29 29 28 29 30 30 28 25 24 19 19 24 26 23 21 19 18 17 16 15 17 21 12
25 26 29 31 27 24 22 21 24 21 19 18 17 15 16 15 16 20 23 24 29 31 34 37 35 34 35 34 32 34 24 29 28 27 24 30 31 32 30 27 24 28 25 24 24 22 20 18 17 16 16 14 12 11
30 27 24 24 21 22 18 19 19 19 20 22 22 12 18 20 22 25 26 22 21 16 17 18 24 31 31 26 22 23 17 19 19 20 22 20 14 15 22 22 26 29 26 25 24 22 21 20 18 17 15 13 11 10
24 27 27 20 20 21 19 19 20 23 27 26 26 22 21 22 21 21 20 16 11 18 18 19 18 14 15 16 18 20 22 23 21 20 22 18 15 18 18 25 25 23 24 25 27 23 19 19 18 17 15 12 10 5
23 29 21 22 21 21 22 24 23 24 25 29 30 23 20 20 17 11 14 12 17 20 21 19 20 24 21 22 17 13 15 23 29 29 28 26 27 22 22 20 21 22 23 23 22 23 27 22 21 12 9 7 5 4
27 21 17 17 18 14 13 17 20 26 20 16 15 17 19 17 19 12 14 14 15 12 15 14 17 21 21 20 21 19 19 24 26 25 26 24 23 24 22 21 21 22 22 21 21 22 20 13 12 10 8 5 0 4
21 20 19 15 13 14 17 19 20 22 19 20 13 6 11 14 16 22 16 15 14 17 25 25 22 24 26 23 24 21 32 28 27 26 26 24 24 23 21 20 21 21 20 19 19 17 15 13 11 10 7 3 -2 -4
13 9 9 13 11 13 17 21 20 18 16 7 11 12 12 18 21 25 11 19 22 27 27 26 21 20 24 25 26 28 29 25 26 30 29 29 26 24 21 20 20 20 18 17 16 15 12 10 9 6 3 2 -2 -6

GFSWCAN_sfc_temp_090.txt.gz
Temp
55 55 55 53 53 53 53 53 53 54 54 54 54 54 55 54 54 46 41 42 40 33 33 38 38 34 38 37 35 39 39 40 37 33 31 29 28 30 27 30 28 30 25 26 26 23 23 39 37 34 38 36 40 39
55 55 55 53 53 53 53 53 53 53 53 53 54 54 54 55 54 49 41 43 43 38 37 40 40 41 40 38 36 37 37 37 36 33 31 30 30 28 28 27 31 28 33 31 32 32 39 39 38 38 39 39 38 38
54 55 55 53 53 53 53 52 53 53 53 53 54 54 54 55 54 49 40 39 40 36 36 36 37 41 43 41 42 37 37 38 38 38 34 33 30 31 27 27 28 32 34 32 34 34 37 39 37 39 40 39 38 38
54 54 54 54 52 52 52 52 52 52 53 54 54 54 54 54 53 49 40 39 40 39 34 36 43 38 43 42 40 40 39 40 39 36 34 32 31 34 30 32 30 35 35 33 32 36 35 39 38 39 38 38 38 38
53 53 54 53 52 52 52 52 52 52 52 53 53 53 53 53 51 43 39 39 40 42 35 34 38 40 42 42 41 40 39 37 35 34 31 32 31 31 29 28 26 33 34 33 33 39 38 37 38 39 37 36 37 36
53 53 53 53 52 52 51 51 51 51 51 52 53 52 52 53 52 43 39 41 41 41 34 30 37 36 38 39 39 39 38 37 35 34 32 32 33 32 26 25 35 35 36 39 39 36 38 36 38 38 38 37 37 36
53 53 53 53 52 52 51 51 51 51 51 51 52 52 51 52 42 40 40 43 44 40 36 30 29 35 36 36 36 36 37 35 35 32 31 30 31 32 27 25 37 38 39 37 37 37 33 35 36 37 37 37 39 35
52 52 52 52 52 51 51 51 51 51 51 51 52 52 51 51 47 40 40 46 42 37 35 25 26 30 34 32 32 33 33 32 32 32 30 30 30 28 26 33 33 35 35 35 36 34 37 35 34 34 34 34 33 32
52 52 52 52 51 51 51 51 51 51 51 51 51 51 43 40 37 38 48 45 38 37 27 25 23 22 33 31 31 33 31 28 31 29 29 31 29 26 34 35 35 35 36 36 34 34 33 33 33 32 32 32 31 31
51 52 52 51 51 51 51 51 51 51 51 51 44 39 33 37 47 45 39 35 32 31 30 26 26 25 30 29 30 29 29 27 21 29 30 27 27 35 37 36 38 38 37 34 31 28 30 29 31 31 32 32 32 31
51 51 52 51 50 50 50 50 51 51 50 40 36 34 38 45 38 33 28 27 28 27 29 27 26 26 31 27 28 31 22 22 17 24 25 24 25 31 35 34 35 38 36 36 34 34 34 34 32 31 31 32 32 32
51 51 51 50 50 50 50 51 51 45 40 41 39 39 37 33 28 25 19 25 25 25 27 26 28 29 29 31 29 28 24 21 18 24 21 19 26 32 32 33 34 33 34 35 36 35 34 34 33 32 32 31 32 32
51 51 51 50 50 50 50 51 51 49 45 39 34 28 29 25 20 18 17 17 15 24 24 24 23 28 29 30 27 26 22 22 26 15 19 23 28 31 31 31 31 31 32 33 33 33 33 32 32 32 31 31 31 29
50 50 50 50 50 50 50 51 50 47 41 30 26 22 24 16 21 24 23 21 26 25 25 25 24 26 28 26 26 18 27 26 12 11 18 21 28 31 30 31 31 32 32 29 28 30 30 29 28 30 31 30 30 29
50 50 50 49 49 49 50 50 50 44 36 29 25 21 20 26 20 20 19 21 23 28 27 26 24 27 23 23 26 22 16 11 17 20 22 24 30 29 29 30 30 30 30 30 30 29 27 27 27 26 28 29 28 27
50 49 48 49 48 49 50 48 43 42 34 26 26 21 26 22 15 17 15 18 24 28 25 27 20 18 20 22 18 16 15 15 22 20 26 24 30 29 28 30 30 30 29 29 29 30 29 28 28 27 27 26 26 26
49 47 49 48 48 48 48 41 38 36 34 32 28 29 29 27 25 24 26 27 29 28 23 22 17 22 23 15 18 22 18 23 24 24 24 27 29 29 29 30 30 30 30 29 28 28 27 27 23 22 24 25 25 24
47 48 48 48 47 46 40 38 36 34 31 32 29 29 31 32 28 27 27 28 29 27 25 22 22 18 22 20 20 24 25 22 22 25 25 29 28 28 30 30 31 30 30 27 27 24 23 21 21 22 24 24 23 22
48 47 48 47 46 38 33 33 34 32 32 33 27 28 32 32 33 32 30 31 28 28 25 19 18 22 27 26 26 22 20 25 31 30 28 29 29 29 28 27 25 24 24 24 25 27 27 25 25 25 25 24 23 24
49 47 47 47 45 34 31 32 34 32 30 32 28 29 30 30 31 31 29 31 28 21 18 18 27 31 30 29 29 29 26 29 29 28 30 28 28 23 25 26 27 25 22 19 20 27 23 22 23 25 24 24 23 22
46 45 46 44 34 32 33 32 31 33 31 28 25 30 28 27 27 27 27 30 26 21 20 29 35 42 34 33 32 32 32 30 30 35 35 26 28 25 24 24 23 25 24 25 25 25 28 24 23 24 26 24 23 22
42 46 40 36 32 31 32 33 32 31 28 25 27 24 24 24 24 26 29 26 22 32 30 39 40 41 37 32 35 31 37 31 30 29 35 34 26 21 22 25 24 25 26 26 27 26 25 23 23 24 24 24 24 21
43 37 32 32 31 30 29 32 26 26 22 24 26 22 19 20 25 29 26 26 28 32 39 39 40 38 35 37 26 27 29 32 32 32 33 33 33 27 24 25 28 26 25 24 25 24 22 27 27 23 23 23 21 20
39 32 31 30 30 28 29 27 28 25 23 23 22 22 18 19 26 24 23 22 27 28 32 36 38 35 27 21 28 36 37 29 32 33 30 29 28 27 29 28 27 29 30 28 25 22 21 23 27 23 21 20 19 18
29 28 30 28 29 24 23 23 21 21 18 19 17 15 19 23 21 20 18 21 26 34 34 33 31 33 33 34 35 36 29 29 29 29 31 29 28 18 18 20 24 26 25 23 22 21 19 20 21 20 19 18 17 15
27 28 28 29 23 22 20 17 18 16 18 17 18 17 16 18 14 18 21 24 36 38 33 31 32 31 31 34 34 34 34 28 26 27 32 27 27 28 25 22 20 20 24 29 24 20 19 21 20 19 18 20 23 16
26 26 28 30 27 24 21 22 23 21 19 18 17 16 20 20 19 22 26 30 31 33 36 36 35 34 35 33 31 32 21 25 25 24 21 25 29 30 29 26 25 28 24 25 25 23 22 20 20 19 18 17 17 16
30 27 25 24 21 20 18 19 18 20 22 23 25 17 20 23 23 29 30 27 27 20 23 24 30 33 32 31 23 21 14 13 12 13 15 15 12 11 16 18 22 30 26 26 25 25 24 23 21 20 18 17 15 14
27 27 25 16 18 21 22 22 23 26 29 27 26 22 21 24 28 28 26 19 12 22 23 22 23 12 14 12 14 17 19 21 21 17 16 17 12 16 14 25 28 27 26 26 30 26 23 22 21 19 18 17 15 12
23 30 18 19 19 20 22 26 25 25 26 30 30 25 25 24 23 14 14 15 20 24 28 25 19 23 24 21 19 12 14 22 27 26 22 22 21 19 22 22 23 23 24 24 24 25 29 25 23 15 13 11 11 10
25 20 14 16 17 15 15 19 22 27 22 21 21 25 24 17 18 13 18 18 18 11 14 17 13 18 20 19 20 18 20 20 20 18 16 18 21 24 21 20 22 23 24 24 24 23 22 16 14 13 12 11 10 10
20 20 18 15 12 11 16 19 22 23 21 23 21 12 13 16 17 21 18 15 14 15 25 25 23 27 25 22 24 20 31 21 24 24 22 23 24 22 22 22 22 23 23 23 22 20 17 16 14 13 12 10 8 6
17 17 16 16 16 16 17 21 20 18 17 15 17 15 14 18 22 25 14 22 28 32 31 29 27 17 22 23 24 25 26 20 25 31 31 30 28 24 22 22 22 22 22 22 20 18 16 14 13 12 10 8 6 2

GFSWCAN_sfc_temp_093.txt.gz
Temp
55 55 56 55 54 54 53 53 53 53 53 54 54 54 54 54 53 45 39 40 41 34 34 38 39 34 36 35 34 38 37 38 35 32 31 28 27 28 25 29 27 29 25 25 25 22 22 37 36 33 38 34 37 36
55 55 55 55 54 54 53 53 53 53 53 53 54 54 54 54 54 49 39 42 42 39 38 40 40 40 40 38 37 36 37 36 35 32 30 29 30 26 27 26 29 28 32 30 31 31 38 38 37 38 38 39 38 37
54 55 55 55 54 53 53 53 52 52 53 53 54 54 54 54 53 48 39 38 39 36 35 35 36 41 41 40 41 37 36 38 37 36 33 31 29 30 26 26 25 31 33 31 33 33 35 38 37 38 38 38 38 38
54 54 54 54 54 53 53 52 52 52 52 54 54 54 54 53 53 48 40 37 39 38 34 36 41 37 41 41 40 39 39 38 37 35 33 31 31 34 29 31 29 34 34 32 31 35 34 38 38 39 39 38 37 37
53 54 54 54 54 53 53 52 52 51 52 52 53 53 53 53 51 43 38 38 39 41 34 34 37 39 40 40 39 38 38 36 34 32 30 31 31 30 28 27 25 32 33 33 32 38 37 37 36 39 37 37 37 37
53 53 53 53 54 53 52 52 51 51 51 51 52 53 52 52 51 42 38 40 40 39 33 30 36 34 37 38 38 37 37 35 34 32 31 31 32 32 26 25 34 33 35 38 38 34 36 34 35 35 37 36 36 36
53 53 53 53 53 53 52 52 51 51 51 51 51 52 51 52 42 40 39 41 44 39 34 30 28 34 35 35 35 35 35 33 33 32 31 30 31 32 27 26 37 37 37 36 34 36 32 34 36 37 36 36 39 35
52 52 52 52 53 52 52 52 51 51 51 51 52 52 51 51 46 39 39 46 41 37 34 24 25 30 34 31 31 32 31 31 31 31 30 29 30 28 26 31 33 36 36 36 36 36 36 35 34 33 33 33 32 32
52 52 52 52 52 52 52 51 51 51 50 51 51 51 43 39 36 37 47 44 37 37 27 23 22 22 32 30 31 31 31 27 31 29 28 30 27 24 33 33 34 35 35 35 32 32 32 33 32 32 32 32 31 31
51 52 52 52 52 52 51 51 51 50 50 50 44 39 33 36 46 45 38 35 30 31 29 25 25 25 29 28 29 28 29 27 20 29 29 26 26 34 36 36 35 36 36 33 31 28 30 30 31 31 32 32 32 31
51 51 51 51 51 51 51 51 51 50 50 43 36 34 37 44 37 32 28 27 28 26 29 26 25 25 30 26 28 30 21 22 17 24 25 23 24 29 34 33 33 32 33 35 35 35 35 34 33 31 31 32 32 32
51 51 51 51 51 51 51 51 51 48 44 41 39 38 36 33 27 24 20 25 24 26 26 26 27 29 28 30 29 28 23 21 18 24 21 19 26 32 32 32 31 31 31 33 35 35 34 35 34 33 32 31 32 32
51 51 51 51 51 51 50 50 51 49 46 41 34 29 29 26 19 17 19 17 14 23 24 25 24 28 28 30 27 25 21 22 25 15 19 23 29 31 30 29 30 28 32 33 33 32 33 31 32 31 30 29 29 28
50 50 50 50 50 50 50 50 50 47 42 35 30 23 24 16 21 23 23 21 25 24 26 25 24 27 27 26 26 18 27 25 13 14 20 23 29 32 30 30 30 30 30 28 29 30 29 28 27 28 30 29 28 27
50 50 50 50 50 49 49 50 49 44 37 33 29 24 21 26 21 19 17 21 23 27 26 25 25 27 22 22 26 22 16 12 18 21 23 25 31 30 29 29 29 29 29 28 26 25 24 25 25 24 26 27 27 27
50 49 49 50 50 49 48 49 43 40 34 30 23 20 24 22 25 24 16 19 24 27 24 26 21 19 20 22 17 18 16 16 23 21 25 25 31 30 29 30 30 30 29 29 28 28 28 26 26 25 25 24 24 24
49 46 50 50 49 48 48 40 38 35 33 33 28 27 28 28 30 28 27 27 28 28 22 21 17 23 23 16 18 22 20 24 25 23 22 27 31 31 29 29 30 30 29 28 28 27 26 26 22 19 20 23 22 22
46 48 49 49 48 46 41 37 34 32 31 33 30 27 31 33 30 29 29 29 30 27 24 22 22 15 19 22 23 25 24 22 21 23 25 30 31 30 30 29 30 30 29 24 22 20 19 19 21 23 20 20 19 17
48 49 49 49 47 35 32 31 33 31 32 33 30 27 31 32 33 33 31 33 30 30 27 18 15 19 27 29 28 20 18 24 31 31 29 30 30 32 29 26 26 25 25 24 24 27 27 26 26 23 22 22 21 22
49 49 49 48 45 33 30 31 33 32 30 33 28 27 29 30 31 31 31 32 29 25 18 17 26 34 32 33 28 27 26 29 30 30 31 30 30 25 26 26 27 26 24 19 21 28 22 22 24 23 23 23 21 21
47 47 48 45 34 33 32 31 30 33 31 30 30 29 27 27 27 27 28 32 30 22 20 29 38 42 36 34 33 32 32 31 31 33 36 37 31 27 25 25 23 24 24 25 25 25 29 26 25 23 24 23 20 20
43 45 38 36 32 31 32 32 32 32 30 28 29 29 23 23 24 27 29 27 28 33 30 39 41 41 40 36 38 31 36 32 31 31 36 34 29 22 23 25 23 25 26 27 27 27 27 25 24 23 22 21 24 20
40 38 32 32 30 29 29 32 28 28 24 25 27 25 21 19 23 30 25 27 31 31 39 41 41 41 39 39 27 28 28 29 30 31 33 34 35 33 27 26 27 28 26 25 27 27 25 28 29 23 22 22 20 19
39 33 31 30 30 27 29 27 28 25 24 24 24 24 20 16 25 24 23 23 25 28 36 38 39 38 37 25 34 38 38 30 32 33 34 32 28 30 30 31 29 29 30 25 25 24 23 25 28 24 21 19 19 18
30 29 30 27 30 25 24 21 22 22 18 18 20 21 21 24 21 21 21 20 23 29 34 37 37 37 36 37 38 37 33 32 31 31 33 29 31 21 22 24 25 26 24 22 22 22 22 23 22 19 19 19 18 16
26 29 27 28 24 22 20 15 17 18 17 16 21 20 18 20 17 17 18 24 33 38 37 38 37 33 32 36 36 35 36 28 27 28 31 27 28 28 26 21 21 21 22 27 23 22 21 22 20 18 19 22 25 17
26 26 29 31 26 23 20 20 21 18 19 20 16 15 19 19 17 21 24 30 35 36 40 40 37 35 36 34 34 34 23 28 28 26 22 23 26 28 27 24 24 25 24 26 26 24 22 21 20 21 20 19 21 18
29 29 25 24 21 16 15 14 15 18 21 23 24 16 18 21 23 27 30 31 31 25 28 30 35 36 35 33 27 25 18 15 14 15 17 17 13 16 20 21 18 31 24 26 26 25 24 23 23 22 20 19 17 18
27 25 26 22 20 20 18 19 20 25 27 25 24 21 20 22 26 29 29 22 13 19 21 23 22 17 16 15 16 19 20 22 23 20 21 24 16 22 15 17 18 21 20 25 31 28 24 25 24 22 20 19 17 16
26 28 25 22 21 19 21 24 20 20 24 28 29 24 22 20 23 22 22 19 24 26 30 27 24 26 27 25 25 16 16 22 27 29 26 27 24 14 17 19 19 21 24 25 25 26 32 27 26 17 15 14 13 13
27 26 22 23 20 14 12 13 17 26 18 19 21 26 29 20 24 20 21 23 21 15 19 20 15 16 22 20 21 23 24 20 21 23 19 13 15 18 19 20 21 23 24 24 25 25 23 18 16 15 14 13 13 14
19 21 20 15 12 8 8 13 18 19 14 18 17 10 14 17 19 24 19 19 17 18 27 28 26 30 26 30 21 23 34 20 22 23 19 18 18 18 20 21 21 22 23 24 24 21 17 17 16 16 14 14 14 11
19 19 13 15 17 15 15 16 16 15 15 14 14 16 19 22 23 26 15 26 32 34 33 32 32 30 22 25 26 26 29 17 20 28 29 29 28 25 23 23 23 23 23 23 20 18 16 16 16 15 14 12 11 9

GFSWCAN_sfc_temp_096.txt.gz
Temp
55 55 55 56 55 54 54 53 53 53 53 53 54 54 54 54 53 44 39 39 38 35 34 36 39 35 34 34 34 37 36 37 34 31 30 28 26 27 24 27 26 28 24 24 24 21 22 37 35 33 38 33 36 36
55 55 55 55 55 55 54 53 53 52 53 53 53 54 54 54 53 47 39 41 41 38 37 38 39 38 39 39 38 34 36 36 35 31 29 28 29 24 25 26 27 27 32 29 30 31 38 36 38 37 37 38 37 36
54 55 55 55 55 55 54 53 53 52 52 53 54 54 54 54 53 47 38 37 39 35 36 35 37 38 40 39 40 36 35 37 35 36 32 30 29 30 25 24 24 30 31 31 32 32 34 37 37 38 38 38 38 37
54 54 54 55 55 54 54 53 53 52 52 52 54 54 53 53 51 47 39 37 39 37 33 35 40 36 39 39 38 38 38 37 36 34 32 30 30 33 28 30 28 33 32 30 29 34 33 37 36 38 38 38 37 36
53 54 54 54 54 54 53 53 52 52 52 52 52 53 53 53 52 43 38 37 38 39 33 34 36 37 38 38 38 37 37 35 33 31 28 30 31 30 28 26 25 32 33 32 33 38 37 37 37 37 38 37 38 36
53 53 53 54 54 54 53 52 52 52 51 51 51 52 52 52 50 42 38 39 39 39 32 30 35 32 34 36 36 34 35 34 33 32 30 31 32 32 26 24 33 32 34 37 37 33 35 36 36 34 36 36 36 37
53 53 53 53 53 53 53 52 52 52 51 51 51 51 51 51 41 40 38 41 43 38 33 30 28 33 34 34 33 33 33 32 32 31 29 29 30 31 27 25 36 36 36 35 35 34 34 35 37 36 36 37 39 36
52 52 52 52 53 53 53 52 52 51 51 51 51 51 51 50 46 39 39 46 40 36 33 22 25 29 35 31 30 31 31 30 31 30 29 28 29 27 26 32 32 34 34 34 35 34 34 32 33 33 32 33 32 32
51 52 52 52 52 52 52 52 51 51 51 50 50 51 43 39 35 37 47 43 36 36 27 23 22 23 32 30 30 30 30 26 30 28 28 29 27 24 33 33 34 35 35 35 31 32 32 33 33 31 31 31 31 31
51 51 52 52 52 52 52 52 51 51 50 50 44 38 34 37 45 44 37 34 30 30 28 24 25 23 29 28 28 28 28 27 20 28 29 26 26 34 36 35 35 35 34 32 30 28 30 30 31 30 31 31 32 31
51 51 51 51 51 51 51 51 51 50 50 43 36 34 37 43 37 33 28 27 28 26 29 26 25 24 30 26 28 31 22 23 17 23 24 22 23 29 34 33 34 33 31 32 34 34 35 34 31 31 30 31 31 31
51 51 51 51 51 51 51 51 50 47 44 43 40 39 36 33 28 25 21 25 24 25 25 24 27 28 28 29 28 27 23 21 17 23 21 21 26 32 33 32 33 31 30 30 31 34 34 34 33 31 30 30 30 30
51 50 51 51 51 51 51 50 50 49 46 42 37 33 31 27 20 21 20 20 16 24 23 25 23 27 27 29 27 24 19 23 24 15 19 23 29 31 31 30 30 30 29 30 32 32 31 30 30 30 29 29 29 28
50 50 50 50 51 51 51 50 49 47 41 34 31 27 26 18 23 26 26 27 28 26 25 25 23 25 27 25 26 18 26 24 12 17 20 23 28 32 31 30 29 29 29 26 27 30 29 27 26 27 29 28 27 26
51 50 50 50 50 50 50 49 48 43 36 32 30 25 23 28 21 22 21 26 26 28 28 26 24 26 22 22 25 22 17 13 17 20 25 25 31 31 30 30 29 29 29 28 27 23 21 24 24 23 25 27 27 26
51 49 49 51 50 50 49 48 43 40 34 31 28 21 25 21 20 20 22 24 27 29 26 27 22 19 21 21 17 18 17 17 22 21 26 25 31 31 30 30 30 30 29 29 29 29 28 26 25 24 24 24 25 25
50 46 50 50 50 49 48 41 37 32 32 32 30 28 26 24 28 28 29 29 31 30 26 24 20 24 22 13 16 24 22 24 25 24 21 27 33 33 31 31 31 30 29 28 28 27 25 26 22 20 21 23 22 23
44 47 50 50 49 47 39 33 33 32 29 32 31 29 28 30 30 29 30 30 31 29 28 23 21 15 17 19 24 28 25 23 22 25 26 30 30 31 31 31 31 30 30 26 24 21 19 20 22 25 24 21 19 17
46 47 49 49 47 36 33 31 32 29 32 33 33 27 27 30 32 33 32 33 31 32 28 18 15 17 25 29 31 31 22 23 30 31 29 31 32 32 30 28 27 26 26 23 23 26 27 27 28 27 25 23 23 21
49 49 49 48 43 34 31 31 32 31 31 33 32 28 25 27 31 31 32 32 30 30 27 19 23 29 31 34 33 33 31 29 29 31 33 32 32 29 28 28 29 27 25 20 20 29 23 23 24 24 24 24 22 21
47 45 47 46 35 33 32 31 30 32 32 31 30 31 27 23 25 29 28 32 30 27 23 28 31 40 37 37 36 35 34 32 32 35 37 32 35 30 29 28 26 25 24 26 26 26 30 27 28 25 25 26 24 21
40 46 38 37 33 32 31 32 32 32 30 30 29 32 26 24 22 27 30 28 29 35 32 34 39 41 41 40 40 34 39 34 34 32 37 35 32 28 28 28 24 26 27 29 29 28 28 29 25 25 25 24 25 19
41 39 34 33 31 29 29 32 29 28 26 27 28 28 24 21 22 30 27 27 32 31 41 40 40 39 40 43 30 27 34 36 36 33 35 35 34 34 31 31 29 29 29 29 27 28 27 28 29 25 24 23 20 18
40 33 31 30 30 27 29 28 29 26 25 25 25 25 20 21 26 25 23 27 34 27 35 38 38 38 39 38 37 40 40 36 33 35 36 33 32 33 31 32 30 29 31 27 25 25 23 26 29 25 23 20 19 19
30 29 30 27 30 21 21 21 19 22 20 17 20 23 19 23 22 22 23 20 27 30 34 37 38 39 38 39 40 39 38 37 33 32 36 32 33 28 25 25 26 27 25 23 21 22 22 22 24 21 20 20 18 17
26 29 27 26 23 22 20 15 16 15 16 14 21 17 18 22 20 19 18 25 35 36 36 37 37 36 36 38 37 38 39 32 34 32 35 31 31 32 31 28 26 24 23 28 25 22 21 22 20 19 19 22 26 18
25 27 25 28 26 22 18 18 19 15 12 15 15 17 21 20 19 22 23 26 38 40 41 42 39 37 38 38 36 38 25 31 31 30 24 26 29 31 31 28 25 26 22 25 25 23 21 21 21 20 19 20 22 19
24 23 23 26 23 15 13 12 12 14 17 19 20 12 17 20 24 27 28 26 26 28 32 33 37 38 36 33 26 25 18 17 14 16 19 21 20 23 24 21 19 31 20 23 24 22 23 23 22 21 19 20 20 19
26 29 26 23 18 18 21 18 17 21 25 22 20 18 20 22 23 25 29 26 19 19 23 25 23 18 15 14 16 21 20 24 24 22 23 27 22 25 19 18 17 18 18 20 31 26 21 22 22 21 20 20 19 19
26 30 23 13 20 20 22 22 15 16 22 26 27 23 22 20 22 22 22 19 18 24 26 22 21 26 27 26 23 16 17 24 30 32 31 31 28 16 13 15 17 17 18 20 20 20 31 27 27 19 16 15 17 16
26 23 12 16 16 14 13 11 12 25 16 15 17 24 33 22 21 20 22 23 25 15 19 19 18 24 26 26 25 24 25 25 24 27 18 18 17 17 18 18 19 20 21 21 22 24 24 18 16 16 15 16 16 15
23 25 17 11 11 7 6 11 12 18 16 14 16 9 15 16 20 26 23 18 18 20 29 30 27 30 28 34 31 30 35 27 25 25 24 20 19 18 18 19 20 22 21 22 23 21 17 17 17 17 17 15 14 13
21 16 5 9 10 10 10 14 14 19 17 17 15 14 17 26 29 33 18 26 36 37 34 33 35 36 27 29 30 29 30 21 23 29 30 28 28 22 20 21 21 22 21 22 19 17 15 15 15 14 15 14 13 12

GFSWCAN_sfc_temp_099.txt.gz
Temp
55 55 55 55 55 55 54 54 53 53 53 53 53 53 54 54 53 45 39 38 39 33 34 36 38 35 34 34 33 36 36 35 33 32 30 28 26 27 23 26 26 29 24 24 24 21 23 37 36 35 39 36 39 38
55 55 55 55 55 55 55 54 54 53 52 53 53 54 54 54 53 48 39 40 40 37 38 37 39 38 38 40 37 34 35 35 34 31 29 28 29 23 24 26 26 27 32 30 31 31 38 36 39 39 39 40 39 38
54 55 55 55 55 55 55 54 54 53 52 52 53 54 54 54 52 47 38 37 38 35 36 35 37 36 39 39 40 36 34 36 35 34 31 30 29 29 25 24 24 30 30 31 33 34 34 38 38 38 38 39 38 38
53 54 54 54 54 55 54 54 53 53 53 52 53 53 53 53 51 47 39 37 38 36 32 35 39 35 37 38 38 38 37 36 35 34 31 30 30 32 28 30 28 33 32 30 29 34 35 37 36 38 38 39 39 38
53 53 54 54 54 54 54 54 53 53 52 52 52 52 53 53 52 42 37 37 38 38 32 34 36 35 36 37 38 37 37 35 32 31 28 30 30 29 27 25 23 31 32 31 33 38 38 38 36 37 35 37 38 38
53 53 53 53 53 54 54 53 53 52 52 51 51 51 52 52 50 42 38 39 38 38 31 30 35 31 32 34 35 34 35 33 32 31 30 30 31 31 26 24 33 31 33 37 38 34 36 37 37 36 36 36 37 37
53 53 53 53 53 53 53 53 52 52 52 51 51 51 51 50 41 40 38 41 42 38 33 29 29 33 34 33 32 32 32 31 32 30 29 29 30 31 27 28 36 36 36 35 35 32 34 35 37 36 36 36 39 36
52 52 52 52 53 53 53 53 52 52 52 51 51 51 51 50 45 39 39 46 40 36 33 22 26 29 33 30 30 30 30 29 30 30 28 28 28 27 26 33 31 35 34 34 34 33 35 33 32 33 32 33 32 32
51 51 52 52 52 52 52 52 52 51 51 51 50 50 42 38 35 36 46 43 36 36 28 25 22 23 31 29 30 29 30 25 30 28 27 29 27 25 33 34 34 35 36 35 34 32 31 31 33 32 31 31 31 31
51 51 51 52 52 52 52 52 51 51 51 50 45 37 33 36 45 44 36 33 30 31 29 25 25 22 29 27 28 28 28 26 18 28 28 26 27 34 36 35 36 36 35 33 30 29 29 29 31 31 30 31 32 31
50 51 51 51 51 51 51 51 51 50 50 43 38 35 36 43 36 32 27 27 28 26 30 27 27 25 30 26 27 30 21 23 16 23 24 23 24 29 33 32 33 33 33 32 32 33 33 33 32 31 31 31 31 31
50 50 50 51 51 51 51 51 50 47 44 44 41 40 38 34 28 24 21 24 24 26 26 25 26 29 28 29 28 27 23 22 18 23 24 22 26 31 31 32 31 32 31 31 30 31 31 34 33 32 31 30 30 31
49 50 50 51 51 51 51 51 50 48 45 41 37 34 31 28 19 22 22 19 19 25 24 26 25 28 27 29 26 25 22 24 24 14 18 22 29 31 31 31 31 30 29 31 31 30 33 32 32 30 30 30 29 28
49 49 50 50 51 51 51 51 49 46 42 34 32 27 25 18 22 25 26 26 27 25 26 25 23 26 28 26 27 20 26 24 13 17 18 23 28 31 31 30 29 28 30 27 26 29 29 28 27 26 30 29 28 27
49 49 50 50 50 50 50 50 48 44 37 32 31 27 25 28 22 21 22 26 26 30 28 25 24 27 23 23 25 22 17 15 18 20 23 25 29 31 31 31 30 30 30 30 29 25 23 23 23 23 26 28 28 28
49 48 47 50 50 50 50 49 46 40 34 31 30 22 23 18 18 18 21 28 29 31 29 29 23 19 22 22 19 19 17 18 24 22 26 23 29 30 31 31 31 32 32 32 31 30 30 27 26 26 26 26 26 26
48 42 49 50 50 49 49 40 35 32 32 30 29 29 24 20 22 24 29 31 32 32 28 27 24 26 23 13 16 23 22 28 27 26 22 26 31 32 31 31 32 31 30 30 29 30 30 29 25 22 23 25 24 25
43 44 48 50 48 46 38 36 33 32 29 31 31 30 27 29 28 28 31 31 32 30 29 27 27 22 21 16 20 28 30 29 23 26 26 29 30 31 31 32 33 31 31 27 28 26 23 22 24 27 26 24 22 20
43 43 47 49 46 38 33 32 32 29 29 31 32 27 26 28 30 33 32 33 31 32 28 25 25 19 23 26 30 31 30 28 31 30 30 31 31 32 31 29 29 26 28 26 25 28 28 27 29 29 27 24 26 25
48 48 48 48 45 35 32 31 32 30 30 31 32 28 26 29 31 31 32 32 31 30 27 26 25 28 29 34 33 34 33 33 32 31 34 34 32 29 30 32 31 31 28 23 24 30 24 25 26 27 25 25 25 24
45 44 47 45 36 36 34 31 29 31 32 31 30 31 28 22 23 28 29 32 30 28 26 31 35 38 37 37 38 37 37 34 35 38 38 33 36 33 33 31 29 28 26 28 28 29 32 27 31 27 26 28 28 27
39 46 38 38 33 33 31 33 32 32 31 30 29 29 22 21 22 26 30 29 28 34 35 39 40 39 38 40 43 41 41 36 36 35 39 37 35 29 29 31 26 27 28 30 30 30 30 30 26 25 26 28 29 23
44 39 33 33 32 31 25 33 29 29 26 27 29 28 26 21 21 30 27 28 33 40 41 41 41 37 39 42 41 41 35 36 38 38 37 37 39 38 36 34 29 29 29 30 27 29 29 30 30 26 24 26 22 21
41 33 31 30 31 24 29 26 28 27 27 26 24 21 20 16 26 26 24 25 36 35 38 39 40 39 40 38 38 40 41 37 37 39 39 32 31 34 35 35 35 31 32 26 24 26 25 25 28 27 24 21 22 21
30 29 29 27 25 24 22 21 17 21 18 13 20 19 18 22 22 23 18 23 35 35 37 38 38 39 39 40 41 41 38 39 37 36 36 34 36 34 31 29 31 29 25 24 23 23 20 22 25 23 22 21 20 19
26 29 27 24 20 23 20 15 18 14 14 11 19 18 19 22 21 20 20 30 36 37 37 38 38 38 38 39 39 39 41 34 34 34 37 34 33 33 33 27 26 25 25 29 24 22 21 22 22 20 20 22 26 18
25 25 27 28 28 23 19 17 18 14 13 17 13 17 21 19 18 22 22 24 34 34 37 41 40 39 39 40 40 40 25 31 33 32 26 29 33 34 34 29 27 26 23 24 24 23 23 22 22 21 20 19 23 19
24 22 21 24 22 18 14 12 13 13 15 18 19 13 16 19 23 26 26 23 23 23 31 33 36 39 39 39 34 26 19 16 14 17 20 23 22 23 23 20 19 31 23 23 24 23 23 23 21 20 18 19 18 17
26 27 24 23 19 21 21 17 16 19 22 19 19 17 18 21 21 21 24 19 15 18 21 26 31 24 22 21 20 20 21 24 24 22 24 30 23 26 22 22 22 22 21 23 31 25 20 21 21 20 19 20 17 16
24 25 19 15 19 21 21 21 15 15 20 24 24 21 21 25 21 17 18 16 20 29 32 27 25 26 28 27 27 21 18 24 31 32 29 31 33 22 18 18 19 20 19 21 23 22 31 25 26 19 16 15 15 14
26 29 21 16 15 15 16 10 10 24 14 12 12 20 30 31 23 20 25 32 35 21 18 25 23 27 28 28 28 30 29 27 24 28 23 22 23 21 19 18 20 21 21 22 23 23 24 18 15 13 14 14 14 15
24 24 17 13 14 6 3 7 8 11 8 9 21 10 11 13 19 36 42 23 24 28 32 34 33 35 31 36 35 34 38 33 33 29 28 27 23 20 20 20 21 22 23 23 23 21 17 16 15 15 13 13 13 12
20 21 15 9 6 11 11 10 8 8 5 5 14 25 29 24 24 35 20 29 37 37 38 37 37 38 38 34 35 36 37 28 29 34 34 33 31 26 22 22 23 23 22 22 20 17 15 14 14 12 11 12 12 10

GFSWCAN_sfc_temp_102.txt.gz
Temp
55 56 56 55 55 55 56 55 54 54 53 53 53 54 54 53 53 51 47 46 49 47 48 44 47 46 44 45 46 46 45 45 45 43 42 42 39 41 37 41 40 41 38 36 37 34 32 47 44 44 52 49 50 49
55 55 55 55 55 55 55 55 54 54 53 53 53 54 54 53 53 50 49 47 48 48 48 45 48 49 50 51 49 44 45 45 47 46 43 43 40 38 38 39 39 37 45 44 43 46 49 49 52 54 51 52 50 50
54 54 55 55 55 55 55 55 54 54 53 53 53 54 54 53 52 50 48 47 47 46 48 46 46 46 45 48 50 48 45 45 44 46 46 44 39 43 39 38 39 43 44 42 43 51 47 51 54 52 52 51 52 51
53 54 54 54 55 55 55 55 54 54 53 53 53 53 53 53 52 49 47 46 48 45 41 46 45 45 46 46 46 47 46 44 45 45 45 43 41 45 42 43 41 50 42 43 43 48 50 51 50 52 52 49 49 50
52 53 54 54 54 54 54 54 54 54 53 53 52 52 52 53 52 47 44 44 45 47 42 43 45 43 43 45 44 44 45 44 44 41 40 40 44 41 42 37 38 46 45 42 44 52 52 52 50 48 47 48 47 48
52 52 53 53 53 53 53 53 53 53 53 52 51 51 51 52 52 47 45 45 44 45 42 38 43 40 41 42 42 42 43 43 43 43 42 43 40 42 38 38 47 46 49 53 51 50 50 49 48 48 47 48 47 47
52 52 52 53 53 53 53 53 53 53 52 52 52 51 51 51 47 45 43 45 45 44 41 37 38 40 42 41 40 40 40 42 42 41 38 40 40 39 38 38 49 48 48 48 48 45 45 46 47 46 45 45 45 45
51 52 51 52 52 53 53 53 52 52 52 52 52 51 51 51 48 45 45 47 45 43 40 34 34 36 41 38 37 39 39 39 39 40 37 37 37 37 33 44 46 45 46 45 46 45 47 44 43 44 42 42 42 42
50 51 52 52 52 52 52 52 52 52 51 51 51 50 46 44 42 43 46 44 42 42 36 33 33 34 37 36 38 36 38 34 38 36 36 36 36 28 39 43 44 44 42 44 43 42 42 39 41 41 41 40 41 42
50 50 51 52 51 51 51 52 52 51 50 50 46 41 38 42 46 46 41 39 38 38 36 32 34 33 37 35 35 35 35 35 31 37 35 31 33 41 44 44 44 45 44 42 39 37 37 36 38 40 39 42 42 42
50 50 50 50 51 51 51 52 52 50 49 43 39 37 41 44 42 38 34 33 34 31 35 34 33 33 37 34 35 37 32 32 28 32 31 31 31 37 41 41 42 43 44 43 44 44 43 42 40 40 38 39 40 40
49 49 50 50 50 51 51 52 51 46 44 44 41 41 41 38 34 31 30 30 29 31 33 31 32 36 34 36 36 32 31 29 25 31 27 25 34 39 39 39 40 40 40 40 39 38 39 39 39 39 39 39 39 39
49 49 49 50 50 51 51 51 50 48 46 42 38 34 34 34 26 26 24 27 27 32 30 30 30 34 32 34 33 32 26 26 30 25 26 32 38 38 38 38 38 36 36 37 37 37 37 37 39 38 37 37 38 37
49 49 49 49 50 50 51 51 50 47 43 34 32 29 29 27 27 29 31 34 35 33 30 33 30 32 33 31 32 27 32 29 24 21 26 35 37 40 39 38 37 38 36 34 34 36 35 34 35 35 35 37 36 36
49 49 49 48 49 50 50 50 48 45 38 32 32 29 29 33 31 30 30 31 31 34 34 33 31 33 30 29 29 27 23 21 26 29 35 38 39 38 38 37 38 38 38 37 36 33 33 33 32 34 34 34 35 35
49 48 46 49 49 49 50 49 47 41 35 33 31 31 29 28 28 26 27 31 32 34 34 35 30 28 29 29 24 23 24 24 31 31 37 37 38 38 39 39 38 38 39 39 38 37 37 34 34 34 34 33 33 33
48 43 49 50 50 49 48 41 38 32 32 31 30 33 32 30 33 32 33 35 35 34 32 32 27 29 27 25 23 28 26 32 35 35 33 34 37 39 38 37 37 36 37 37 37 37 35 34 32 30 31 33 31 31
43 45 48 48 47 44 40 37 34 32 30 32 31 33 33 36 34 33 34 34 34 33 32 30 30 26 26 24 27 32 32 34 34 34 35 36 36 37 36 38 37 36 35 34 33 33 32 30 30 32 32 31 29 28
43 43 46 48 46 39 34 33 33 30 31 32 34 32 33 33 34 36 34 36 35 36 32 28 27 26 31 32 33 34 35 35 41 41 38 37 37 37 35 33 33 34 33 34 33 34 36 35 35 35 33 31 31 32
48 48 48 47 46 36 32 32 33 30 29 33 33 31 33 33 33 33 33 34 32 32 29 27 29 36 35 39 35 37 38 39 39 40 41 44 41 34 34 36 37 37 36 35 33 35 33 33 31 32 32 31 30 30
45 44 46 45 38 36 34 32 29 29 32 32 33 32 32 30 30 29 30 33 31 30 30 34 39 43 44 42 42 38 40 39 39 44 49 46 48 39 40 38 36 37 35 37 36 36 36 35 37 33 32 32 32 33
39 45 38 39 33 33 32 34 32 32 31 31 31 32 30 27 26 28 32 29 30 34 35 41 43 43 42 41 42 43 44 43 40 41 44 44 41 36 35 37 35 35 35 36 38 37 39 37 35 32 31 31 33 30
43 40 34 33 31 32 29 33 30 31 27 28 31 28 29 25 25 31 28 31 34 40 42 42 42 43 41 44 42 42 42 41 42 43 43 41 42 41 40 41 42 36 36 37 37 37 36 36 33 32 30 31 29 27
41 33 31 30 30 27 30 28 30 29 29 26 27 24 24 26 27 27 27 27 35 41 40 39 41 40 41 40 39 41 43 42 41 41 43 43 40 40 40 40 41 40 37 39 34 33 32 31 32 32 28 27 26 26
29 28 29 27 29 26 23 24 25 24 23 20 21 22 22 24 24 24 22 26 35 38 39 40 39 40 39 40 42 43 43 43 41 40 43 41 40 40 39 39 38 39 35 32 32 30 30 29 29 29 27 26 25 25
24 27 25 26 23 21 22 22 21 18 16 19 21 21 23 24 22 21 23 32 38 39 38 37 38 38 38 40 39 40 43 42 41 39 41 41 37 36 35 35 34 33 31 34 33 30 29 28 27 26 26 26 28 25
21 22 29 31 27 23 21 19 20 17 14 16 16 20 22 20 19 25 28 29 34 35 36 39 39 39 39 40 41 42 42 36 37 38 38 35 38 38 37 35 34 35 30 30 31 30 29 27 26 26 25 25 27 24
25 25 24 25 24 20 17 16 16 14 18 20 21 18 21 22 25 29 30 30 30 29 29 31 33 37 38 39 39 36 34 32 28 28 30 30 28 31 32 35 30 33 29 29 30 29 28 27 26 25 24 23 24 24
24 25 24 22 22 21 22 18 18 22 25 23 23 22 21 24 26 26 30 28 22 23 29 36 38 30 31 31 30 30 31 29 30 29 30 32 32 34 26 29 29 31 28 29 32 28 25 26 26 24 23 24 23 22
20 25 27 20 22 21 22 23 20 20 23 26 27 24 23 26 27 26 25 24 27 35 39 39 38 33 34 32 35 33 27 29 33 35 34 34 36 34 28 26 26 27 27 28 28 27 31 29 28 22 19 18 18 18
21 26 23 24 24 28 27 16 15 24 16 17 16 21 31 31 26 24 29 36 37 37 37 35 35 35 29 31 33 34 35 31 30 32 36 36 32 30 28 25 25 25 26 27 27 27 27 23 20 18 18 17 18 19
22 23 20 18 19 9 5 15 15 19 16 14 23 16 15 16 21 36 42 32 33 34 36 36 34 36 39 35 36 37 41 38 33 31 32 34 32 31 27 24 23 25 26 26 26 26 22 20 18 18 17 17 17 15
24 21 14 7 7 12 13 11 12 13 9 8 13 21 28 28 27 37 24 30 37 37 37 38 38 39 38 37 35 36 37 36 35 36 36 36 36 31 26 25 25 25 25 24 24 21 19 18 17 16 17 15 13 13

GFSWCAN_sfc_temp_105.txt.gz
Temp
55 55 55 56 56 55 56 56 55 54 54 53 53 53 54 54 53 53 53 53 51 53 55 51 53 51 50 52 50 52 50 49 49 45 46 47 44 47 42 48 46 44 40 39 41 37 32 53 48 46 54 54 55 55
55 55 55 55 55 55 55 55 55 54 53 53 53 53 54 54 53 52 53 53 53 50 53 53 57 58 57 57 54 51 50 51 53 49 49 49 44 47 45 42 48 40 49 48 48 47 53 54 58 59 56 55 55 55
54 54 55 55 55 55 55 55 55 54 54 53 53 53 53 54 53 50 51 51 51 49 52 49 50 54 53 52 59 51 53 52 50 51 51 49 42 49 42 44 47 50 54 45 47 54 55 57 58 58 57 55 57 56
53 53 54 54 54 54 54 55 55 54 54 53 53 53 53 53 53 50 51 51 50 49 43 50 51 48 52 52 52 54 52 50 51 51 49 47 44 51 46 49 45 53 48 46 47 53 54 57 57 58 57 56 53 54
52 52 53 53 54 54 54 54 54 54 54 53 53 52 52 52 52 51 52 52 50 47 42 46 51 48 48 49 48 49 49 50 49 45 43 42 49 45 49 46 42 52 48 44 46 55 56 56 55 53 52 52 52 51
52 52 52 53 53 54 53 53 53 53 53 53 52 52 51 51 51 52 49 50 50 50 43 39 46 44 44 46 46 46 47 48 48 46 45 48 48 46 41 42 53 54 56 57 54 53 54 55 52 53 50 52 52 51
51 52 52 52 52 53 53 53 53 53 53 52 52 51 51 51 51 48 48 49 48 50 44 39 41 42 44 44 44 43 45 46 45 45 43 46 44 42 41 39 55 55 56 55 56 53 47 49 48 50 50 50 49 49
51 51 52 52 52 52 52 52 53 53 53 52 52 51 51 51 50 48 50 48 49 48 44 35 38 40 44 41 40 44 42 42 43 43 43 40 42 41 36 46 52 56 54 53 52 52 51 51 48 47 48 47 44 44
50 50 51 51 52 52 52 53 52 52 52 51 51 50 48 47 45 47 47 47 47 45 39 37 34 36 41 40 42 39 42 36 43 37 39 40 39 32 41 45 49 51 49 49 47 49 48 45 46 47 46 45 43 46
50 50 50 51 51 51 52 52 52 52 50 50 47 42 39 44 46 46 43 41 40 42 40 35 41 35 40 39 38 40 39 37 32 38 39 33 34 44 49 49 51 52 50 49 42 38 40 39 41 44 44 45 45 45
50 50 50 50 50 50 51 52 52 50 49 44 40 38 44 45 44 42 37 35 39 33 39 39 38 38 41 36 38 41 36 36 30 34 32 34 34 42 47 47 49 51 50 49 48 48 47 46 44 44 43 43 42 42
49 49 49 50 50 50 51 51 50 48 45 44 41 42 42 39 37 32 32 34 31 33 40 36 37 40 40 41 39 36 33 32 27 35 30 27 37 44 45 43 45 46 44 44 45 44 44 43 43 42 42 41 40 41
49 49 49 49 50 50 50 51 51 48 47 43 38 34 34 36 28 29 26 30 31 37 35 34 33 40 37 38 38 35 29 28 35 29 29 35 42 44 45 43 42 39 40 40 40 41 40 40 40 40 39 39 40 40
49 49 49 49 49 49 50 50 50 48 43 35 32 30 31 31 31 34 35 37 40 38 35 38 35 36 39 34 37 29 36 34 28 24 29 40 43 44 45 43 41 43 39 35 35 38 37 35 36 37 38 40 39 39
49 48 49 48 49 49 49 50 49 45 39 33 32 30 31 37 37 36 35 35 35 39 36 35 35 37 34 32 34 31 27 24 30 32 39 42 41 42 42 41 42 41 42 40 40 35 34 34 34 36 37 37 38 37
49 48 48 49 49 49 49 49 48 42 35 33 32 30 33 32 34 32 33 34 37 38 38 37 32 30 31 32 28 27 29 28 35 36 41 42 42 42 42 41 41 42 41 40 40 40 39 37 37 37 38 36 36 35
48 44 49 49 49 48 48 44 39 34 33 31 32 37 38 39 38 41 41 41 40 36 33 33 29 29 30 28 27 34 30 36 39 40 40 40 40 41 42 41 40 38 40 39 39 39 38 38 35 32 33 37 34 33
44 48 48 48 48 46 43 40 35 33 30 33 31 37 36 41 41 43 41 39 38 37 35 32 33 27 28 28 33 36 37 37 39 39 40 40 41 41 39 40 39 39 38 36 35 35 34 33 33 35 35 34 32 31
47 48 48 47 47 42 34 33 34 32 33 35 36 38 38 39 41 43 43 40 41 41 36 32 30 28 32 38 39 39 38 39 43 47 44 43 42 41 39 36 36 35 35 36 36 37 38 37 38 37 36 33 33 33
47 47 47 47 46 38 33 33 34 32 32 37 36 36 36 38 41 39 39 37 36 32 31 29 32 39 40 46 45 44 45 47 47 43 45 48 45 40 37 37 39 39 39 38 37 39 37 36 36 35 35 35 33 33
45 46 46 45 40 38 33 33 31 32 33 32 35 35 34 33 32 32 32 35 31 31 31 36 39 44 47 49 51 49 45 44 45 45 46 46 49 41 42 42 39 41 40 41 43 43 40 37 42 37 35 35 35 35
43 46 41 41 33 33 32 35 33 34 31 33 32 33 32 30 31 31 33 30 30 35 37 41 43 44 44 44 46 47 47 45 45 45 45 44 42 42 43 44 39 38 39 39 40 41 42 42 40 37 35 35 35 32
44 42 34 33 31 30 29 35 31 32 29 31 32 30 31 31 31 34 30 32 35 40 42 42 43 44 43 45 44 44 44 43 43 44 44 45 45 45 42 42 42 38 38 39 41 40 39 42 37 35 33 33 31 30
42 33 31 30 30 27 32 28 31 32 31 29 29 28 31 31 30 28 28 34 39 42 41 41 42 41 42 41 41 42 43 44 43 43 44 43 41 43 45 44 44 43 42 42 40 39 38 36 36 33 30 29 29 28
30 29 30 27 30 27 25 27 27 28 25 27 28 28 27 28 25 26 27 34 37 39 40 42 42 41 39 41 43 43 45 44 42 41 43 44 43 43 41 41 43 44 40 37 36 36 35 33 32 31 29 29 28 27
24 28 27 26 26 26 26 22 24 25 28 25 26 30 27 26 24 25 31 37 39 40 41 41 41 40 40 41 40 41 43 43 43 40 42 43 42 40 37 37 37 39 37 38 36 35 34 32 31 30 29 29 32 28
23 26 29 34 32 29 26 25 26 25 21 21 26 23 24 21 23 30 39 38 40 41 42 42 41 40 40 41 42 43 44 42 38 41 43 36 39 41 39 37 36 38 35 34 34 34 33 31 30 29 29 28 29 28
29 29 22 27 26 28 25 25 24 22 23 26 25 21 22 24 28 37 36 37 36 36 36 36 37 38 39 40 40 40 39 36 34 33 34 35 35 35 36 37 39 37 34 33 32 32 32 31 30 29 28 27 27 27
27 31 30 24 23 23 25 25 26 28 31 26 25 27 27 32 39 39 39 36 36 33 33 35 38 34 34 35 36 37 37 35 33 32 34 36 36 37 34 34 35 34 34 32 35 32 29 30 29 29 28 27 27 25
26 32 28 25 22 23 29 28 29 33 32 33 35 34 32 35 39 37 36 36 34 34 36 37 38 34 37 37 38 39 37 35 35 36 36 37 39 38 34 32 31 32 32 32 31 29 33 31 29 25 22 22 22 21
32 29 27 27 26 30 33 31 24 28 26 25 27 28 31 36 39 39 37 38 38 37 36 36 37 38 37 37 36 36 36 37 34 35 37 40 37 36 35 33 31 30 31 31 29 29 29 26 23 21 20 20 20 20
25 26 26 23 25 30 18 20 24 23 29 27 26 27 27 26 28 36 42 37 36 35 37 37 36 38 40 40 40 39 40 39 38 33 33 35 36 36 33 30 28 29 29 29 29 29 27 23 22 21 20 19 19 18
24 25 25 25 26 23 22 20 19 21 21 22 25 29 31 30 28 36 31 36 40 40 39 40 40 40 40 39 39 39 39 37 38 40 38 37 37 36 31 29 29 28 28 28 27 27 23 22 21 20 19 19 17 16

GFSWCAN_sfc_temp_111.txt.gz
Temp
56 56 56 56 55 55 56 55 55 55 54 54 54 53 53 53 53 46 42 44 41 36 38 44 45 40 40 39 37 41 40 39 36 33 31 31 30 33 29 32 30 29 25 25 26 24 23 43 41 38 43 41 43 43
55 55 55 55 55 55 55 55 55 55 54 54 53 53 53 53 53 51 41 45 44 38 40 44 46 45 46 46 43 41 40 40 40 34 32 31 31 31 30 28 34 31 36 32 33 33 43 42 43 46 45 45 43 42
55 55 54 54 54 55 55 55 55 55 54 54 54 54 53 53 53 50 41 42 41 38 38 39 40 44 47 45 47 40 39 43 41 40 36 34 32 32 29 28 30 37 41 36 39 41 45 48 48 44 44 45 46 47
53 54 53 53 54 54 54 54 54 54 54 54 54 54 53 53 53 51 42 42 40 39 33 38 45 40 43 44 44 44 43 43 42 39 35 33 32 37 32 36 33 39 38 36 36 44 44 47 47 46 47 46 45 46
52 53 53 53 53 53 53 54 54 54 54 54 54 53 52 52 52 47 44 45 42 39 33 35 41 40 42 42 41 41 42 39 36 34 32 31 33 36 35 32 37 41 42 38 39 50 43 44 43 42 42 43 44 43
52 52 52 52 52 52 52 53 53 53 53 53 53 53 52 52 51 44 39 42 43 41 34 30 38 36 39 40 39 39 39 37 36 35 32 34 39 37 28 26 37 41 46 50 47 47 45 45 46 43 43 44 43 42
52 52 52 52 52 52 52 52 52 52 52 53 53 52 52 51 45 41 40 42 46 42 35 30 31 35 37 36 36 36 37 35 35 34 32 33 35 37 29 27 41 41 43 44 44 42 42 42 43 44 43 44 44 40
51 51 51 51 51 52 52 52 53 52 52 52 52 52 51 51 48 41 41 47 44 40 38 28 31 33 36 33 32 35 33 34 33 32 34 35 33 31 28 36 38 40 41 41 43 42 44 41 39 40 40 40 39 38
50 50 50 51 51 51 51 52 53 52 52 52 51 50 47 42 39 39 47 45 40 38 33 33 28 28 36 34 33 32 34 31 34 31 32 32 29 28 34 36 38 39 38 40 42 41 40 38 39 38 38 37 36 36
50 50 50 50 50 50 50 51 52 52 51 50 46 42 38 39 47 45 38 35 32 35 31 30 30 29 33 32 32 31 32 32 29 32 32 31 30 37 40 42 42 41 39 37 34 35 36 35 36 36 37 37 37 36
49 49 49 49 49 50 50 51 51 50 50 44 40 37 38 46 38 34 32 32 33 32 32 32 29 27 33 28 29 32 26 32 27 30 29 27 27 33 39 38 39 37 37 36 37 37 37 37 36 36 36 36 36 35
49 49 49 49 49 49 50 50 51 46 43 43 41 42 39 35 34 32 30 31 30 30 29 29 29 30 31 32 29 30 25 30 23 26 27 23 28 36 37 36 36 36 35 36 35 35 35 36 35 34 34 34 34 34
49 49 49 49 49 49 49 50 50 50 47 43 37 34 34 33 28 27 22 26 27 27 26 26 25 29 30 31 29 27 26 24 27 17 20 25 31 35 35 34 35 33 32 32 33 33 34 33 33 32 33 33 33 34
48 48 48 48 49 49 49 49 49 47 43 36 33 30 29 26 30 28 25 25 29 28 28 30 27 27 29 27 29 22 27 27 15 19 20 26 33 36 35 34 33 35 34 29 28 32 32 30 30 29 32 33 34 34
48 48 48 48 48 48 49 49 49 45 39 30 32 28 29 31 22 23 28 26 27 32 30 27 26 29 24 25 29 25 19 17 18 21 27 29 35 34 35 35 35 35 36 35 35 32 28 28 28 30 32 34 33 33
48 48 44 48 48 49 48 47 43 42 34 33 32 30 32 31 30 24 18 22 27 30 27 28 26 23 24 24 26 20 15 15 24 25 30 31 35 36 37 36 37 37 37 37 37 37 36 34 34 34 34 33 33 33
47 41 49 49 49 48 48 40 35 33 32 31 30 34 31 21 23 24 28 29 31 29 24 26 26 24 27 24 22 23 20 28 29 29 27 32 34 37 36 35 36 36 36 36 36 36 36 36 30 29 32 37 34 33
41 42 48 48 46 44 39 34 34 32 30 32 28 23 31 31 27 29 30 29 29 27 26 24 26 26 20 17 21 25 27 28 29 33 35 33 34 35 35 35 36 35 36 34 32 32 29 30 29 33 33 35 31 31
41 41 46 47 44 36 29 32 33 28 29 28 26 25 28 30 30 32 32 31 31 31 31 31 29 26 28 28 30 32 34 32 38 40 39 36 36 36 37 36 34 32 32 31 33 34 35 35 36 36 36 34 34 36
48 47 47 47 45 34 31 30 34 30 26 24 22 21 26 27 30 29 31 30 30 28 30 29 30 33 28 32 32 37 40 39 32 34 38 42 41 35 34 35 38 38 33 33 31 35 32 32 33 35 37 38 36 36
44 41 45 42 34 35 32 28 30 30 32 28 23 22 24 23 20 19 22 27 30 31 30 35 36 39 41 43 44 42 41 36 37 40 40 39 43 42 40 39 32 31 32 36 36 36 38 36 40 41 38 37 38 38
39 45 35 37 33 32 30 32 27 30 29 27 26 29 27 20 19 20 25 29 31 33 35 36 37 38 38 38 40 41 41 41 40 39 41 41 38 39 39 39 34 36 36 37 37 37 38 39 40 37 34 35 38 36
43 38 33 33 30 30 28 30 27 27 23 18 26 23 18 21 20 24 24 26 29 36 38 38 38 38 37 38 39 39 40 38 36 38 39 40 40 38 37 37 38 35 35 37 38 36 36 40 39 38 36 35 33 32
42 33 30 28 29 26 27 26 25 15 10 13 8 10 10 16 17 21 17 29 34 34 32 34 32 34 36 35 35 37 39 39 37 37 37 36 35 36 38 38 39 38 37 38 37 37 37 36 38 37 34 32 30 31
28 28 27 23 25 25 24 22 20 20 19 14 11 10 14 13 12 7 15 28 32 34 35 36 35 35 33 35 37 38 40 36 31 33 38 37 38 38 36 36 37 39 39 35 35 35 35 33 34 29 31 29 30 30
22 23 23 18 13 18 19 14 15 16 13 7 14 15 8 13 12 20 20 31 33 34 34 34 34 34 34 36 36 36 38 35 35 36 37 39 37 35 34 34 35 38 36 37 36 33 33 34 30 26 27 29 34 32
21 19 19 26 24 22 18 18 19 16 17 18 13 10 12 14 15 23 32 36 32 35 37 37 35 36 36 37 38 40 41 39 37 39 41 32 34 36 36 35 36 40 37 33 34 33 33 33 29 28 30 31 30 29
22 19 16 20 21 17 15 12 12 14 20 21 18 13 13 16 24 33 31 34 27 29 32 35 36 36 35 36 37 38 37 33 32 32 29 30 30 34 36 37 38 39 38 37 36 35 33 33 31 30 29 29 29 28
20 22 21 14 14 10 17 18 22 24 32 25 23 24 26 32 36 35 37 36 27 23 30 34 35 29 26 32 33 33 33 30 23 28 29 31 34 35 31 33 34 33 33 32 36 37 32 32 30 29 29 28 27 26
23 25 20 19 15 17 26 24 24 33 33 32 32 32 32 34 37 39 37 34 25 29 32 32 35 34 33 34 35 36 38 31 32 31 32 33 35 34 30 30 26 27 25 26 27 24 37 32 32 25 25 24 23 23
21 25 19 24 23 27 30 33 33 33 32 30 31 27 28 31 35 38 37 37 35 34 33 33 33 33 33 34 33 32 33 38 32 32 34 36 36 34 34 35 32 26 23 25 24 25 26 26 25 24 23 23 22 23
19 21 23 17 23 30 20 11 9 15 26 25 26 28 28 27 25 31 37 36 33 32 34 35 33 34 37 37 38 38 40 38 30 31 26 31 33 34 34 34 28 24 23 24 26 26 27 26 25 25 24 22 22 22
7 6 19 19 19 16 24 21 14 12 24 24 25 27 28 27 24 33 33 33 36 35 34 35 36 36 37 37 37 37 39 37 37 39 39 39 40 38 34 32 25 24 23 25 25 26 27 27 26 25 23 23 22 21